Weather History for KDOV - April, 2013

Change the Weather History Date:

Monday, April 15, 2013

  Actual Average Record
Temperature  
Mean Temperature 52 °F -  
Max Temperature 56 °F 64 °F 86 °F (1960)
Min Temperature 49 °F 43 °F 30 °F (1950)
Degree Days  
Heating Degree Days 13    
Growing Degree Days 2 (Base 50)    
Moisture  
Dew Point 46 °F    
Average Humidity 80    
Maximum Humidity 92    
Minimum Humidity 66    
Precipitation  
Precipitation 0.01 in - - ()
Sea Level Pressure  
Sea Level Pressure 30.27 in    
Wind  
Wind Speed 8 mph (East)    
Max Wind Speed 17 mph    
Max Gust Speed 22 mph    
Visibility 10 miles    
Events Rain    
Averages and records for this station are not official NWS values.
T = Trace of Precipitation, MM = Missing Value Source: NWS Daily Summary

Daily Weather History Graph

Daily Weather History Graph

Search for Another Location

Airport or City:

Trip Planner

Search our weather history database for the weather conditions in past years. The results will help you decide how hot, cold, wet, or windy it might be!

Date:

Astronomy

Apr. 15, 2013 Rise Set
Actual Time 6:24 AM EDT 7:39 PM EDT
Civil Twilight 5:57 AM EDT 8:07 PM EDT
Nautical Twilight 5:24 AM EDT 8:40 PM EDT
Astronomical Twilight 4:49 AM EDT 9:15 PM EDT
Moon 9:50 AM EDT (4/15) No Moon Set
Length of Visible Light 14h 10m
Length of Day
13h 14m
Waxing Crescent, 24% of the Moon is Illuminated
Apr 15
Waxing Crescent
Apr 18
First Quarter
Apr 25
Full
May 2
Last Quarter
May 9
New

Hourly Weather History & Observations

Time (EDT) Temp. Dew Point Humidity Pressure Visibility Wind Dir Wind Speed Gust Speed Precip Events Conditions
12:55 AM 53.2 °F 42.3 °F 66% 30.16 in 10.0 mi SSE 3.5 mph - N/A   Clear
1:55 AM 52.5 °F 42.3 °F 68% 30.18 in 10.0 mi SSE 3.5 mph - N/A   Clear
2:55 AM 51.1 °F 42.8 °F 73% 30.18 in 10.0 mi East 3.5 mph - N/A   Clear
3:55 AM 52.2 °F 48.4 °F 87% 30.20 in 10.0 mi East 8.1 mph - N/A   Clear
4:55 AM 51.8 °F 45.5 °F 79% 30.23 in 10.0 mi East 10.4 mph - N/A   Clear
5:55 AM 51.1 °F 41.0 °F 68% 30.25 in 10.0 mi East 8.1 mph - N/A   Clear
6:00 AM 51.8 °F 41.0 °F 67% 30.25 in 10.0 mi East 9.2 mph - N/A   Light Drizzle
6:13 AM 50.0 °F 42.8 °F 76% 30.25 in 10.0 mi ESE 6.9 mph - N/A   Clear
6:14 AM 50.0 °F 42.8 °F 76% 30.25 in 10.0 mi ESE 5.8 mph - N/A Rain Light Rain
6:55 AM 49.8 °F 46.0 °F 87% 30.27 in 10.0 mi East 5.8 mph - 0.00 in Rain Light Rain
7:11 AM 50.0 °F 44.6 °F 82% 30.28 in 10.0 mi East 6.9 mph - N/A   Overcast
7:55 AM 49.8 °F 44.8 °F 83% 30.28 in 10.0 mi East 9.2 mph - 0.00 in   Mostly Cloudy
8:55 AM 50.2 °F 45.7 °F 85% 30.28 in 10.0 mi ENE 10.4 mph 18.4 mph N/A   Partly Cloudy
9:36 AM 50.0 °F 46.4 °F 87% 30.28 in 10.0 mi East 16.1 mph - N/A Rain Light Rain
9:45 AM 50.0 °F 46.4 °F 87% 30.28 in 10.0 mi East 16.1 mph 21.9 mph N/A   Clear
9:55 AM 50.9 °F 46.8 °F 86% 30.28 in 10.0 mi East 17.3 mph - 0.00 in   Partly Cloudy
10:55 AM 54.0 °F 47.5 °F 79% 30.30 in 10.0 mi East 15.0 mph - N/A   Clear
11:55 AM 53.4 °F 46.2 °F 77% 30.28 in 10.0 mi East 17.3 mph - N/A   Mostly Cloudy
12:55 PM 54.3 °F 46.4 °F 75% 30.29 in 10.0 mi East 15.0 mph - N/A   Mostly Cloudy
1:55 PM 55.8 °F 47.1 °F 73% 30.30 in 10.0 mi East 11.5 mph - N/A   Scattered Clouds
2:55 PM 55.2 °F 46.2 °F 72% 30.30 in 10.0 mi ESE 15.0 mph - N/A   Mostly Cloudy
3:36 PM 53.6 °F 46.4 °F 77% 30.29 in 10.0 mi East 9.2 mph - N/A Rain Light Rain
3:55 PM 53.2 °F 48.4 °F 84% 30.29 in 10.0 mi East 11.5 mph - 0.00 in Rain Light Rain
4:05 PM 53.6 °F 48.2 °F 82% 30.29 in 10.0 mi ESE 9.2 mph - N/A   Mostly Cloudy
4:55 PM 54.5 °F 47.5 °F 77% 30.28 in 10.0 mi East 10.4 mph - 0.01 in   Mostly Cloudy
5:55 PM 54.0 °F 48.6 °F 82% 30.29 in 10.0 mi East 8.1 mph - N/A   Overcast
6:55 PM 54.1 °F 49.3 °F 84% 30.29 in 10.0 mi East 6.9 mph - N/A   Overcast
7:55 PM 53.4 °F 49.5 °F 86% 30.31 in 10.0 mi East 6.9 mph - N/A   Overcast
8:55 PM 53.2 °F 49.1 °F 86% 30.32 in 10.0 mi East 6.9 mph - N/A   Overcast
9:55 PM 52.7 °F 49.3 °F 88% 30.33 in 10.0 mi East 6.9 mph - N/A   Mostly Cloudy
10:55 PM 52.2 °F 49.8 °F 92% 30.33 in 10.0 mi East 8.1 mph - N/A   Overcast
11:55 PM 52.0 °F 49.5 °F 91% 30.32 in 10.0 mi East 8.1 mph - N/A   Overcast